Полярный

Россия / Чукотский автономный округ     69°09′44″N   178°42′43″E
темп.,
°C
ветер,
м/с
пор.,
м/с
влажн.,
%
обл.,
%
осадки,
мм/ч
давл.,
гПа
погр.,
м
20 апреля, вт
вт2000:00−7зюз597720 0.0 1031105
03:00−11зюз43801 0.0 103526
06:00−12юз33811 0.0 103817
09:00−7ююз11801 0.0 103942
12:00−4юв34795 0.0 1038149
15:00−4юв34865 0.0 1036117
18:00−6ю338898 0.0 103327
21:00−7ююз3377100 0.0 103119
21 апреля, ср
ср2100:00−7юз436797 0.0 103018
03:00−8юз3365100 0.0 102913
06:00−6юз3365100 0.0 102916
09:00−2ююз22712 0.0 102923
12:00+2ююз327617 0.0 102924
15:00+2ююз33774 0.0 102819
18:000юз32740 0.0 102813
21:00−5юз43665 0.0 102814
22 апреля, чт
чт2200:00−6юз43591 0.0 102816
03:00−7юз445611 0.0 102718
06:00−6юз336216 0.0 102714
09:000юз33660 0.0 102728
12:00+2юз22791 0.0 102618
15:00+2ююз32794 0.0 102519
18:00−1ююз33768 0.0 102413
21:00−5юз336949 0.0 102313
23 апреля, пт
пт2300:00−4юз326970 0.0 102212
03:00−6юз326952 0.0 102111
06:00−8зюз21692 0.0 102210
09:00−3зюз117583 0.0 102212
12:000ссз127270 0.0 102249
15:00−1сз22806 0.0 102240
18:00−5з22834 0.0 102310
21:00−10зюз22814 0.0 102310
24 апреля, сб
сб2400:00−12зюз228134 0.0 102410
03:00−12юз2282100 0.0 102310
06:00−11ю228215 0.0 102212
09:00−6юв237887 0.0 102168
12:00−5юв348151 0.0 1020129
15:00−3юв3486100 0.0 1018135
18:00−5вюв2292100 0.0 101731
21:00−9ю1293100 0.0 101610